| time (UTC) | temp F | wind direction | speed knots | gust knots | rain 1hr in | rain 24hr in | rain mn in | humidity % | barometer mb |
| 20260510070030 | 51 | 157 | 2.6 | 3.5 | 0.00 | 0.00 | 0.00 | 75 | 1017.5 |
| 20260510061534 | 53 | 141 | 2.6 | 5.2 | 0.00 | 0.00 | 0.00 | 71 | 1017.4 |
| 20260510060032 | 53 | 160 | 1.7 | 3.5 | 0.00 | 0.00 | 0.00 | 73 | 1017.4 |
| 20260510054534 | 53 | 157 | 2.6 | 4.3 | 0.00 | 0.00 | 0.00 | 73 | 1017.3 |
| 20260510053036 | 54 | 162 | 2.6 | 3.5 | 0.00 | 0.00 | 0.00 | 71 | 1017.4 |
| 20260510051534 | 54 | 161 | 2.6 | 3.5 | 0.00 | 0.00 | 0.00 | 71 | 1017.2 |
| 20260510050111 | 55 | 157 | 2.6 | 4.3 | 0.00 | 0.00 | 0.00 | 71 | 1017.1 |
| 20260510044535 | 57 | 140 | 3.5 | 4.3 | 0.00 | 0.00 | 0.00 | 67 | 1017.1 |
| 20260510043034 | 58 | 157 | 2.6 | 3.5 | 0.00 | 0.00 | 0.00 | 68 | 1017.1 |
| 20260510041535 | 59 | 142 | 3.5 | 4.3 | 0.00 | 0.00 | 0.00 | 67 | 1017.0 |
| 20260510040036 | 61 | 137 | 2.6 | 5.2 | 0.00 | 0.00 | 0.00 | 63 | 1016.9 |
| 20260510034533 | 63 | 157 | 2.6 | 4.3 | 0.00 | 0.00 | 0.00 | 62 | 1016.7 |
| 20260510033143 | 64 | 162 | 2.6 | 3.5 | 0.00 | 0.00 | 0.00 | 62 | 1016.6 |
| 20260510031532 | 66 | 168 | 1.7 | 3.5 | 0.00 | 0.00 | 0.00 | 57 | 1016.6 |
| 20260510030141 | 68 | 291 | 0.0 | 0.9 | 0.00 | 0.00 | 0.00 | 53 | 1016.6 |
| 20260510024537 | 69 | 292 | 0.0 | 0.0 | 0.00 | 0.00 | 0.00 | 48 | 1016.6 |
| 20260510023033 | 70 | 292 | 0.0 | 0.0 | 0.00 | 0.00 | 0.00 | 42 | 1016.7 |
| 20260510021535 | 71 | 292 | 0.0 | 0.0 | 0.00 | 0.00 | 0.00 | 42 | 1016.6 |
| 20260510020145 | 72 | 292 | 0.0 | 0.0 | 0.00 | 0.00 | 0.00 | 38 | 1016.6 |
| 20260510014645 | 73 | 292 | 0.9 | 1.7 | 0.00 | 0.00 | 0.00 | 34 | 1016.9 |
| 20260510013143 | 73 | 292 | 0.0 | 1.7 | 0.00 | 0.00 | 0.00 | 34 | 1017.0 |
| 20260510011531 | 73 | 293 | 0.9 | 5.2 | 0.00 | 0.00 | 0.00 | 34 | 1017.1 |
| 20260510010033 | 73 | 301 | 2.6 | 4.3 | 0.00 | 0.00 | 0.00 | 34 | 1017.1 |
| 20260510004535 | 74 | 298 | 2.6 | 5.2 | 0.00 | 0.00 | 0.00 | 34 | 1017.1 |
| 20260510003034 | 74 | 311 | 2.6 | 6.1 | 0.00 | 0.00 | 0.00 | 36 | 1017.2 |
| 20260510001535 | 74 | 310 | 3.5 | 7.0 | 0.00 | 0.00 | 0.00 | 38 | 1017.2 |
| 20260510000036 | 74 | 317 | 3.5 | 7.0 | 0.00 | 0.00 | 0.00 | 38 | 1017.3 |
| 20260509234534 | 74 | 319 | 4.3 | 7.8 | 0.00 | 0.00 | 0.00 | 39 | 1017.5 |
| 20260509233035 | 74 | 337 | 4.3 | 7.8 | 0.00 | 0.00 | 0.00 | 39 | 1017.6 |
| 20260509231536 | 73 | 300 | 3.5 | 8.7 | 0.00 | 0.00 | 0.00 | 41 | 1018.1 |
| 20260509224531 | 73 | 329 | 3.5 | 7.8 | 0.00 | 0.00 | 0.00 | 40 | 1018.4 |
| 20260509223031 | 73 | 338 | 2.6 | 7.8 | 0.00 | 0.00 | 0.00 | 41 | 1018.7 |
| 20260509221642 | 72 | 327 | 3.5 | 8.7 | 0.00 | 0.00 | 0.00 | 42 | 1018.9 |
| 20260509220036 | 71 | 305 | 4.3 | 9.6 | 0.00 | 0.00 | 0.00 | 44 | 1019.0 |
| 20260509214533 | 71 | 326 | 4.3 | 8.7 | 0.00 | 0.00 | 0.00 | 46 | 1019.1 |
| 20260509213035 | 71 | 322 | 3.5 | 9.6 | 0.00 | 0.00 | 0.00 | 48 | 1019.3 |
| 20260509211536 | 70 | 325 | 2.6 | 6.1 | 0.00 | 0.00 | 0.00 | 49 | 1019.5 |
| 20260509210034 | 70 | 329 | 4.3 | 9.6 | 0.00 | 0.00 | 0.00 | 49 | 1019.7 |
| 20260509203151 | 68 | 333 | 3.5 | 8.7 | 0.00 | 0.00 | 0.00 | 52 | 1019.9 |
| 20260509201533 | 68 | 329 | 4.3 | 7.8 | 0.00 | 0.00 | 0.00 | 53 | 1020.1 |
| 20260509200035 | 67 | 341 | 2.6 | 7.0 | 0.00 | 0.00 | 0.00 | 54 | 1020.3 |
| 20260509194642 | 66 | 339 | 3.5 | 8.7 | 0.00 | 0.00 | 0.00 | 55 | 1020.5 |
| 20260509193032 | 66 | 2 | 4.3 | 7.8 | 0.00 | 0.00 | 0.00 | 54 | 1020.6 |
| 20260509191534 | 65 | 346 | 3.5 | 7.0 | 0.00 | 0.00 | 0.00 | 54 | 1020.7 |
| 20260509190035 | 65 | 315 | 3.5 | 7.8 | 0.00 | 0.00 | 0.00 | 55 | 1020.9 |
| 20260509183119 | 63 | 358 | 3.5 | 7.0 | 0.00 | 0.00 | 0.00 | 56 | 1021.3 |
| 20260509180028 | 63 | 16 | 3.5 | 6.1 | 0.00 | 0.00 | 0.00 | 55 | 1021.3 |
| 20260509174535 | 62 | 339 | 2.6 | 7.0 | 0.00 | 0.00 | 0.00 | 53 | 1021.3 |
| 20260509173036 | 61 | 323 | 2.6 | 7.0 | 0.00 | 0.00 | 0.00 | 57 | 1021.4 |
| 20260509171535 | 60 | 311 | 3.5 | 7.0 | 0.00 | 0.00 | 0.00 | 57 | 1021.5 |
| 20260509170037 | 59 | 353 | 2.6 | 6.1 | 0.00 | 0.00 | 0.00 | 57 | 1021.6 |
| 20260509164535 | 58 | 326 | 2.6 | 5.2 | 0.00 | 0.00 | 0.00 | 55 | 1021.7 |
| 20260509161642 | 56 | 339 | 1.7 | 4.3 | 0.00 | 0.00 | 0.00 | 59 | 1021.8 |
| 20260509160032 | 55 | 341 | 1.7 | 4.3 | 0.00 | 0.00 | 0.00 | 62 | 1021.8 |
| 20260509154536 | 53 | 348 | 1.7 | 3.5 | 0.00 | 0.00 | 0.00 | 65 | 1021.9 |
| 20260509153033 | 52 | 347 | 1.7 | 2.6 | 0.00 | 0.00 | 0.00 | 66 | 1021.8 |
| 20260509150035 | 50 | 136 | 0.9 | 2.6 | 0.00 | 0.00 | 0.00 | 69 | 1021.6 |
| 20260509144642 | 49 | 112 | 1.7 | 3.5 | 0.00 | 0.00 | 0.00 | 72 | 1021.6 |
| 20260509143032 | 47 | 129 | 1.7 | 3.5 | 0.00 | 0.00 | 0.00 | 75 | 1021.6 |
| 20260509141533 | 45 | 157 | 0.9 | 1.7 | 0.00 | 0.00 | 0.00 | 78 | 1021.5 |
| 20260509134537 | 41 | 145 | 3.5 | 5.2 | 0.00 | 0.00 | 0.00 | 84 | 1021.3 |
| 20260509133034 | 39 | 155 | 3.5 | 4.3 | 0.00 | 0.00 | 0.00 | 86 | 1021.3 |
| 20260509131536 | 40 | 150 | 2.6 | 3.5 | 0.00 | 0.00 | 0.00 | 82 | 1021.3 |
| 20260509130033 | 41 | 157 | 1.7 | 3.5 | 0.00 | 0.00 | 0.00 | 80 | 1021.0 |
| 20260509123033 | 42 | 135 | 1.7 | 3.5 | 0.00 | 0.00 | 0.00 | 81 | 1020.9 |
| 20260509120030 | 42 | 157 | 2.6 | 5.2 | 0.00 | 0.00 | 0.00 | 83 | 1020.9 |
| 20260509110110 | 44 | 128 | 2.6 | 4.3 | 0.00 | 0.00 | 0.00 | 82 | 1021.0 |
| 20260509104535 | 44 | 123 | 2.6 | 3.5 | 0.00 | 0.00 | 0.00 | 83 | 1021.0 |
| 20260509103036 | 44 | 150 | 2.6 | 7.0 | 0.00 | 0.00 | 0.00 | 83 | 1021.1 |
| 20260509101530 | 44 | 142 | 2.6 | 4.3 | 0.00 | 0.00 | 0.00 | 83 | 1021.2 |
| 20260509100035 | 44 | 130 | 2.6 | 4.3 | 0.00 | 0.00 | 0.00 | 83 | 1021.3 |
| 20260509094643 | 45 | 149 | 3.5 | 4.3 | 0.00 | 0.00 | 0.00 | 81 | 1021.4 |
| 20260509093035 | 46 | 154 | 2.6 | 5.2 | 0.00 | 0.00 | 0.00 | 80 | 1021.6 |
| 20260509091533 | 47 | 135 | 1.7 | 3.5 | 0.00 | 0.00 | 0.00 | 78 | 1021.7 |
| 20260509090108 | 48 | 159 | 4.3 | 7.8 | 0.00 | 0.00 | 0.00 | 77 | 1021.8 |
| 20260509084610 | 47 | 131 | 4.3 | 7.8 | 0.00 | 0.00 | 0.00 | 78 | 1022.0 |
| 20260509083034 | 46 | 131 | 3.5 | 7.0 | 0.00 | 0.00 | 0.00 | 80 | 1022.2 |
| 20260509081535 | 47 | 151 | 2.6 | 5.2 | 0.00 | 0.00 | 0.00 | 79 | 1022.3 |